Location: Krakow
(50.0830°N, 19.9170°E)
Time: 18:10:31
(UTC+01:00)

SR - Pass Details

Date: 12 February 2023
Orbit: 582 x 867 km, 66.7° (Epoch: 20 March)

Event Time Altitude Azimuth Distance (km) Brightness Sun altitude
Rises 21:46:57 0° 309° (NW) 2,830 ? -45.2°
Enters shadow 21:47:37 - 306° (NW) 2,603 ? -45.3°
Reaches altitude 10° 21:50:01 10° 286° (WNW) 1,909 - -45.5°
Maximum altitude 21:52:25 15° 252° (WSW) 1,611 - -45.8°
Drops below altitude 10° 21:54:48 10° 217° (SW) 1,904 - -46.1°
Sets 21:57:52 0° 194° (SSW) 2,818 - -46.4°
